Ely, MN

5:56 AM CST on December 06, 2016 (GMT -0600)
Ely Municipal

Weather History for KELO - May, 2012

Change the Weather History Date:

Thursday, May 31, 2012

  Actual Average Record
Temperature  
Mean Temperature 47 °F -  
Max Temperature 64 °F 64 °F 80 °F (1997)
Min Temperature 30 °F 40 °F 30 °F (2012)
Degree Days  
Heating Degree Days 18    
Moisture  
Dew Point 31 °F    
Average Humidity 56    
Maximum Humidity 100    
Minimum Humidity 21    
Precipitation  
Precipitation 0.00 in - - ()
Sea Level Pressure  
Sea Level Pressure 30.02 in    
Wind  
Wind Speed 1 mph (ENE)    
Max Wind Speed 8 mph    
Max Gust Speed -    
Visibility 10 miles    
Events Fog    
Averages and records for this station are not official NWS values.
T = Trace of Precipitation, MM = Missing Value Source: NWS Daily Summary

Daily Weather History Graph

Daily Weather History Graph

Search for Another Location

Airport or City:

Trip Planner

Search our weather history database for the weather conditions in past years. The results will help you decide how hot, cold, wet, or windy it might be!

Date:

Astronomy

May. 31, 2012 Rise Set
Actual Time 5:13 AM CDT 8:57 PM CDT
Civil Twilight 4:33 AM CDT 9:37 PM CDT
Nautical Twilight 3:40 AM CDT 10:31 PM CDT
Astronomical Twilight 2:23 AM CDT 11:48 PM CDT
Moon 4:33 PM CDT (5/31) 2:29 AM CDT (5/31)
Length of Visible Light 17h 03m
Length of Day
15h 44m
Waxing Gibbous, 80% of the Moon is Illuminated
May 31
Waxing Gibbous
Jun 4
Full
Jun 11
Last Quarter
Jun 19
New
Jun 26
First Quarter

Hourly Weather History & Observations

Time (CDT) Temp. Windchill Dew Point Humidity Pressure Visibility Wind Dir Wind Speed Gust Speed Precip Events Conditions
12:13 AM 33.8 °F - 32.0 °F 93% 30.00 in 10.0 mi Calm Calm - N/A   Clear
12:32 AM 33.8 °F - 32.0 °F 93% 30.00 in 10.0 mi Calm Calm - N/A   Clear
12:53 AM 33.8 °F - 30.2 °F 87% 30.01 in 10.0 mi Calm Calm - N/A   Clear
1:13 AM 33.8 °F - 32.0 °F 93% 30.01 in 10.0 mi Calm Calm - N/A   Clear
1:32 AM 32.0 °F - 30.2 °F 93% 30.01 in 10.0 mi Calm Calm - N/A   Clear
1:53 AM 33.8 °F - 30.2 °F 87% 30.02 in 10.0 mi Calm Calm - N/A   Clear
2:12 AM 33.8 °F - 30.2 °F 87% 30.02 in 10.0 mi Calm Calm - N/A   Clear
2:33 AM 33.8 °F - 30.2 °F 87% 30.03 in 1.8 mi Calm Calm - N/A   Mostly Cloudy
2:53 AM 33.8 °F - 30.2 °F 87% 30.03 in 0.2 mi Calm Calm - N/A Fog Fog
3:12 AM 30.2 °F - 30.2 °F 100% 30.03 in 4.0 mi Calm Calm - N/A   Scattered Clouds
3:33 AM 30.2 °F - 28.4 °F 93% 30.04 in 10.0 mi Calm Calm - N/A   Clear
3:52 AM 30.2 °F - 28.4 °F 93% 30.04 in 10.0 mi Calm Calm - N/A   Clear
4:13 AM 30.2 °F - 28.4 °F 93% 30.04 in 10.0 mi Calm Calm - N/A   Clear
4:33 AM 30.2 °F - 28.4 °F 93% 30.04 in 10.0 mi Calm Calm - N/A   Clear
4:52 AM 30.2 °F - 28.4 °F 93% 30.04 in 10.0 mi Calm Calm - N/A   Clear
5:12 AM 30.2 °F - 28.4 °F 93% 30.04 in 10.0 mi Calm Calm - N/A   Clear
5:33 AM 30.2 °F - 28.4 °F 93% 30.05 in 10.0 mi Calm Calm - N/A   Clear
5:52 AM 30.2 °F - 28.4 °F 93% 30.05 in 10.0 mi Calm Calm - N/A   Clear
6:12 AM 32.0 °F - 30.2 °F 93% 30.05 in 10.0 mi Calm Calm - N/A   Clear
6:33 AM 35.6 °F - 33.8 °F 93% 30.05 in 10.0 mi Calm Calm - N/A   Clear
6:53 AM 37.4 °F - 35.6 °F 93% 30.06 in 10.0 mi Calm Calm - N/A   Clear
7:12 AM 39.2 °F - 37.4 °F 93% 30.06 in 10.0 mi Calm Calm - N/A   Clear
7:33 AM 42.8 °F - 37.4 °F 81% 30.06 in 10.0 mi Calm Calm - N/A   Clear
7:52 AM 44.6 °F - 39.2 °F 81% 30.06 in 10.0 mi Calm Calm - N/A   Clear
8:13 AM 48.2 °F - 39.2 °F 71% 30.07 in 10.0 mi Calm Calm - N/A   Clear
8:33 AM 51.8 °F - 39.2 °F 62% 30.07 in 10.0 mi Calm Calm - N/A   Clear
8:52 AM 51.8 °F - 37.4 °F 58% 30.07 in 10.0 mi WSW 3.5 mph - N/A   Clear
9:12 AM 53.6 °F - 37.4 °F 54% 30.07 in 10.0 mi Calm Calm - N/A   Clear
9:33 AM 55.4 °F - 35.6 °F 47% 30.07 in 10.0 mi West 3.5 mph - N/A   Clear
9:52 AM 55.4 °F - 33.8 °F 44% 30.07 in 10.0 mi WNW 3.5 mph - N/A   Clear
10:13 AM 55.4 °F - 30.2 °F 38% 30.06 in 10.0 mi NNE 5.8 mph - N/A   Clear
10:33 AM 55.4 °F - 30.2 °F 38% 30.06 in 10.0 mi East 5.8 mph - N/A   Clear
10:52 AM 55.4 °F - 30.2 °F 38% 30.06 in 10.0 mi Calm Calm - N/A   Clear
11:13 AM 57.2 °F - 30.2 °F 36% 30.06 in 10.0 mi NNE 4.6 mph - N/A   Clear
11:33 AM 57.2 °F - 30.2 °F 36% 30.06 in 10.0 mi NE 5.8 mph - N/A   Clear
11:53 AM 57.2 °F - 28.4 °F 33% 30.05 in 10.0 mi ENE 8.1 mph - N/A   Clear
12:13 PM 59.0 °F - 28.4 °F 31% 30.05 in 10.0 mi NW 4.6 mph - N/A   Clear
12:32 PM 60.8 °F - 21.2 °F 22% 30.04 in 10.0 mi East 6.9 mph - N/A   Clear
12:53 PM 60.8 °F - 24.8 °F 25% 30.04 in 10.0 mi East 5.8 mph - N/A   Clear
1:12 PM 60.8 °F - 26.6 °F 27% 30.03 in 10.0 mi East 4.6 mph - N/A   Clear
1:32 PM 60.8 °F - 26.6 °F 27% 30.02 in 10.0 mi ENE 4.6 mph - N/A   Clear
1:53 PM 60.8 °F - 26.6 °F 27% 30.02 in 10.0 mi NNW 3.5 mph - N/A   Clear
2:12 PM 62.6 °F - 23.0 °F 22% 30.01 in 10.0 mi ENE 5.8 mph - N/A   Clear
2:32 PM 62.6 °F - 26.6 °F 26% 30.01 in 10.0 mi NE 3.5 mph - N/A   Clear
2:53 PM 62.6 °F - 26.6 °F 26% 30.00 in 10.0 mi Calm Calm - N/A   Clear
3:12 PM 62.6 °F - 26.6 °F 26% 29.99 in 10.0 mi NW 4.6 mph - N/A   Clear
3:32 PM 62.6 °F - 26.6 °F 26% 29.99 in 10.0 mi Calm Calm - N/A   Clear
3:53 PM 62.6 °F - 24.8 °F 24% 29.98 in 10.0 mi Calm Calm - N/A   Clear
4:13 PM 64.4 °F - 24.8 °F 22% 29.98 in 10.0 mi NE 3.5 mph - N/A   Clear
4:33 PM 64.4 °F - 23.0 °F 21% 29.98 in 10.0 mi ENE 4.6 mph - N/A   Unknown
4:52 PM 64.4 °F - 26.6 °F 24% 29.98 in 10.0 mi North 4.6 mph - N/A   Clear
5:13 PM 64.4 °F - 24.8 °F 22% 29.98 in 10.0 mi Calm Calm - N/A   Clear
5:32 PM 64.4 °F - 24.8 °F 22% 29.98 in 10.0 mi ESE 4.6 mph - N/A   Clear
5:52 PM 64.4 °F - 23.0 °F 21% 29.97 in 10.0 mi East 4.6 mph - N/A   Clear
6:13 PM 64.4 °F - 24.8 °F 22% 29.97 in 10.0 mi ENE 4.6 mph - N/A   Clear
6:32 PM 64.4 °F - 24.8 °F 22% 29.97 in 10.0 mi NE 3.5 mph - N/A   Clear
6:53 PM 64.4 °F - 24.8 °F 22% 29.97 in 10.0 mi Calm Calm - N/A   Clear
7:12 PM 64.4 °F - 26.6 °F 24% 29.97 in 10.0 mi North 3.5 mph - N/A   Clear
7:33 PM 64.4 °F - 24.8 °F 22% 29.96 in 10.0 mi Calm Calm - N/A   Clear
7:52 PM 62.6 °F - 33.8 °F 34% 29.96 in 10.0 mi SSE 5.8 mph - N/A   Clear
8:12 PM 60.8 °F - 35.6 °F 39% 29.97 in 10.0 mi SSE 6.9 mph - N/A   Clear
8:33 PM 57.2 °F - 35.6 °F 44% 29.97 in 10.0 mi South 4.6 mph - N/A   Clear
8:52 PM 57.2 °F - 37.4 °F 48% 29.97 in 10.0 mi SSE 4.6 mph - N/A   Clear
9:12 PM 55.4 °F - 35.6 °F 47% 29.97 in 10.0 mi South 3.5 mph - N/A   Clear
9:33 PM 53.6 °F - 35.6 °F 51% 29.97 in 10.0 mi South 3.5 mph - N/A   Clear
9:52 PM 53.6 °F - 35.6 °F 51% 29.98 in 10.0 mi South 3.5 mph - N/A   Clear
10:12 PM 51.8 °F - 35.6 °F 54% 29.98 in 10.0 mi Calm Calm - N/A   Clear
10:33 PM 48.2 °F - 37.4 °F 66% 29.98 in 10.0 mi Calm Calm - N/A   Clear
10:52 PM 44.6 °F 43.1 °F 37.4 °F 76% 29.98 in 10.0 mi SE 3.5 mph - N/A   Clear
11:12 PM 42.8 °F 41.1 °F 37.4 °F 81% 29.98 in 10.0 mi SSE 3.5 mph - N/A   Clear
11:33 PM 42.8 °F - 37.4 °F 81% 29.98 in 10.0 mi Calm Calm - N/A   Clear
11:52 PM 42.8 °F - 37.4 °F 81% 29.98 in 10.0 mi Calm Calm - N/A   Clear